Change the Weather History Date:

Sunday, February 10, 2013

  Actual Average Record
Temperature  
Mean Temperature 22 °F 30 °F  
Max Temperature 30 °F 44 °F 59 °F (2015)
Min Temperature 14 °F 16 °F 0 °F (2014)
Degree Days  
Heating Degree Days 43 35  
Month to date heating degree days 308 354  
Since 1 July heating degree days 3934 4249  
Cooling Degree Days 0 0  
Month to date cooling degree days 0 0  
Year to date cooling degree days 0 0  
Moisture  
Dew Point 18 °F    
Average Humidity 75    
Maximum Humidity 92    
Minimum Humidity 58    
Precipitation  
Precipitation T in 0.01 in 0.13 in (2012)
Month to date precipitation 0.05 0.11  
Year to date precipitation 0.15 0.37  
Sea Level Pressure  
Sea Level Pressure 29.84 in    
Wind  
Wind Speed 18 mph (NW)    
Max Wind Speed 36 mph    
Max Gust Speed 43 mph    
Visibility 7 miles    
Events Snow    
T = Trace of Precipitation, MM = Missing Value Source: NWS Daily Summary

Daily Weather History Graph

Daily Weather History Graph

Search for Another Location

Airport or City:

Trip Planner

Search our weather history database for the weather conditions in past years. The results will help you decide how hot, cold, wet, or windy it might be!

Date:

Astronomy

Feb. 10, 2013 Rise Set
Actual Time 6:58 AM MST 5:23 PM MST
Civil Twilight 6:29 AM MST 5:52 PM MST
Nautical Twilight 5:56 AM MST 6:25 PM MST
Astronomical Twilight 5:24 AM MST 6:57 PM MST
Moon 6:48 AM MST (2/10) 6:18 PM MST (2/10)
Length of Visible Light 11h 22m
Length of Day
10h 24m
New Moon, 0% of the Moon is Illuminated
Feb 10
New Moon
Feb 17
First Quarter
Feb 25
Full
Mar 4
Last Quarter
Mar 11
New

Hourly Weather History & Observations

Time (MST) Temp. Windchill Dew Point Humidity Pressure Visibility Wind Dir Wind Speed Gust Speed Precip Events Conditions
12:06 AM 26.6 °F 13.4 °F 24.8 °F 93% 29.57 in 2.5 mi NW 18.4 mph 26.5 mph 0.00 in Snow Light Snow
12:53 AM 27.0 °F 13.2 °F 23.0 °F 85% 29.62 in 2.5 mi NNW 20.7 mph 27.6 mph 0.00 in Snow Light Snow
12:56 AM 26.6 °F 12.7 °F 23.0 °F 86% 29.58 in 3.0 mi NNW 20.7 mph 27.6 mph 0.00 in Snow Light Snow
1:53 AM 26.1 °F 11.6 °F 21.9 °F 84% 29.63 in 2.5 mi NNW 21.9 mph 29.9 mph 0.00 in Snow Light Snow
2:02 AM 26.6 °F 13.4 °F 21.2 °F 80% 29.58 in 4.0 mi NNW 18.4 mph 31.1 mph 0.00 in Snow Light Snow
2:53 AM 26.1 °F 11.6 °F 21.9 °F 84% 29.65 in 7.0 mi NNW 21.9 mph 28.8 mph 0.00 in   Overcast
3:53 AM 26.1 °F 11.6 °F 21.0 °F 81% 29.67 in 4.0 mi NNW 21.9 mph 33.4 mph 0.00 in   Overcast
4:19 AM 26.6 °F 12.7 °F 21.2 °F 80% 29.60 in 2.5 mi NNW 20.7 mph 34.5 mph 0.00 in Snow Light Snow
4:45 AM 26.6 °F 11.4 °F 21.2 °F 80% 29.61 in 4.0 mi NNW 25.3 mph 34.5 mph 0.00 in   Overcast
4:53 AM 27.0 °F 11.6 °F 21.0 °F 78% 29.71 in 4.0 mi NNW 26.5 mph 36.8 mph 0.00 in Snow Light Snow
6:53 AM 26.1 °F 12.0 °F 21.0 °F 81% 29.76 in 10.0 mi NNW 20.7 mph 28.8 mph 0.00 in   Overcast
7:53 AM 27.0 °F 13.9 °F 21.0 °F 78% 29.79 in 10.0 mi NW 18.4 mph 24.2 mph 0.00 in   Overcast
8:53 AM 28.9 °F 15.4 °F 21.0 °F 72% 29.81 in 10.0 mi NW 21.9 mph - N/A   Mostly Cloudy
9:53 AM 28.9 °F 14.8 °F 21.9 °F 75% 29.82 in 10.0 mi NW 24.2 mph 36.8 mph N/A   Overcast
10:53 AM 28.9 °F 14.5 °F 21.9 °F 75% 29.85 in 10.0 mi NW 25.3 mph 33.4 mph 0.00 in   Overcast
11:49 AM 28.4 °F 14.1 °F 21.2 °F 74% 29.78 in 1.2 mi NNW 24.2 mph 38.0 mph 0.00 in Snow Light Snow
11:53 AM 27.0 °F 11.0 °F 21.9 °F 81% 29.88 in 0.8 mi NNW 28.8 mph 39.1 mph 0.00 in Snow Light Snow
12:04 PM 26.6 °F 11.1 °F 21.2 °F 80% 29.78 in 2.5 mi NNW 26.5 mph 35.7 mph 0.00 in Snow Light Snow
12:11 PM 28.4 °F 14.1 °F 21.2 °F 74% 29.79 in 8.0 mi NNW 24.2 mph 35.7 mph 0.00 in   Overcast
12:32 PM 26.6 °F 9.8 °F 19.4 °F 74% 29.79 in 4.0 mi NNW 32.2 mph 42.6 mph 0.00 in   Overcast
12:53 PM 28.0 °F 14.6 °F 19.9 °F 72% 29.88 in 10.0 mi NW 20.7 mph 34.5 mph 0.00 in   Overcast
1:53 PM 30.0 °F 16.0 °F 21.0 °F 69% 29.89 in 10.0 mi NW 25.3 mph 33.4 mph N/A   Mostly Cloudy
2:53 PM 28.9 °F 15.4 °F 17.1 °F 61% 29.92 in 10.0 mi NW 21.9 mph 35.7 mph N/A   Partly Cloudy
3:53 PM 28.0 °F 13.9 °F 16.0 °F 61% 29.95 in 10.0 mi NNW 23.0 mph 33.4 mph N/A   Clear
4:53 PM 25.0 °F 13.1 °F 14.0 °F 63% 30.01 in 10.0 mi NW 13.8 mph - N/A   Clear
5:53 PM 21.9 °F 11.7 °F 14.0 °F 72% 30.06 in 10.0 mi North 9.2 mph - N/A   Clear
6:53 PM 21.0 °F 9.3 °F 12.0 °F 68% 30.09 in 10.0 mi NW 11.5 mph - N/A   Clear
7:53 PM 19.0 °F 6.1 °F 10.9 °F 71% 30.11 in 10.0 mi NW 12.7 mph - N/A   Clear
8:53 PM 18.0 °F 4.8 °F 10.0 °F 71% 30.12 in 10.0 mi NW 12.7 mph - N/A   Clear
9:53 PM 17.1 °F 8.7 °F 8.1 °F 68% 30.15 in 10.0 mi WNW 5.8 mph - N/A   Clear
10:53 PM 15.1 °F 6.4 °F 8.1 °F 74% 30.15 in 10.0 mi WNW 5.8 mph - N/A   Clear
11:53 PM 14.0 °F 3.9 °F 8.1 °F 77% 30.17 in 10.0 mi WNW 6.9 mph - N/A   Clear